loading
DOY 173 | 2024-06-21T03:57:33Z
Showing default

COSMOS 44, 876

Orbit data source: Space-Track

COSMOS 44, 876 is a payload satellite owned by VNIIEM (CIS) in LEO that was launched on Fri, 28 Aug 1964 UTC via a Vostok 8A92M launch vehicle from the Tyuratam Missile And Space Complex (TTMTR). Payloads include a variety of satellites, spacecraft, and rockets equipped with specific instruments for various scientific and technological missions. These include communications satellites like Starlink; space stations such as the ISS; scientific satellites like the Hubble; Earth observation satellites from companies like Planet Labs, Umbra, and HawkEye 360; GPS; miniature CubeSats for education and research; and military/defense satellites.

Loading next visibility...
Loading greatness...
COSMOS 44 details
NORAD ID876
COSPAR ID
1964-053A
Orbit
LEO
Last TLE update1 day ago
Origin
Flag of CISVNIIEM (CIS)
ManufacturerVNIIEM
BusMeteor
MotorUnknown
Mass~1,250 kg wet, ~1,250 kg dry
Launch date (UTC)
1964-08-28 (60 years ago)
Launch vehicle
Vostok 8A92M
Launch site
Tyuratam Missile And Space Complex (TTMTR)
Object type
Payload
Rocket body
Debris
Radar Cross Section4.4 m², Large (>1 m²)
Predictive object data (real-time)
Latitude11.11699°
Longitude-3.872°
Altitude778.103 km
Speed7.414 km/s
Apparent Right ascension23h 17m 53s
Apparent Declination-17° 24' 19"
Sunlit
Object is in full shadow
Predictive observer data (real-time)
Local Sidereal Time14:56:28
Azimuth80.885° E
Elevation-37.983°
Doppler factor1
Orbital elements
Apogee775.447 km
Perigee577.527 km
Semi-major axis7,054.624 km
Eccentricity0.0140277
Inclination65.0611°
RAAN312.6106°
Arg. of periapsis194.8509°
True anomaly165.25872°
Mean anomaly164.8455°
Mean motion3.66296 °/min
BSTAR0.000096897
Period98.28 mins
Definitive object data (Epoch: 2024-06-20T03:19:20.497Z)
Latitude-0.00003°
Longitude-6.05959°
Altitude775.588 km
Speed7.416 km/s
True Right ascension20h 50m 26s
True Declination0° 00' 00"
Sunlit
Object was in full shadow at TLE epoch
TLE from 1 day ago
0 COSMOS 44
1   876U 64053A   24172.13843168  .00000456  00000-0  96897-4 0  9997
2   876  65.0611 312.6106 0140277 194.8509 164.8455 14.64730974182669
Epoch: 2024-06-20T03:19Z
No data available
Other satellites on launch #53 in the year 1964 (1964-08-28 UTC)

COSMOS 44 Visibility forecast

Observer location: 39.9160978°, -105.1181434, 0m alt.

COSMOS 44 is not visible in the next 10 days
Span
Click to sort rows by Start time (UTC) header in descending order
Start Az.
Max El. time (UTC)
Max El. Az.
Max El.
End time (UTC)
End Az.